Regional Weather Roundup
Issued by NWS

Home | Current Version | Previous Version | Graphics & Text | Print | Product List | Glossary On
Versions: 1 2 3 4 5 6 7 8 9 10 11 12 13 14 15 16 17 18 19 20 21 22 23 24 25 26 27 28 29 30 31 32 33 34 35 36 37 38 39 40 41 42 43 44 45 46 47 48 49 50
000
ASUS45 KABQ 291110
RWRNM
NEW MEXICO REGIONAL WEATHER ROUNDUP
NATIONAL WEATHER SERVICE ALBUQUERQUE NM
500 AM MDT MON AUG 29 2016

NOTE: "FAIR" MEANS FEW OR NO CLOUDS BELOW 12,000 FEET AGL WITH NO
       SIGNIFICANT WEATHER OR OBSTRUCTIONS TO VISION.

      THIS PRODUCT IS RELEASED AS TWO VERSIONS.  ONE VERSION NEAR
      THE TOP OF THE HOUR CONTAINING PRELIMINARY DATA FROM ALBUQUERQUE
      AND OTHER STATIONS.  A FINAL VERSION WITH ADDITIONAL DATA IS
      ISSUED ABOUT 10 MINUTES AFTER THE HOUR.

NMZ501-503-504-510>518-291200-
NORTHWEST PLATEAU/NORTHCENTRAL MOUNTAINS

CITY           SKY/WX    TMP DP  RH WIND       PRES   REMARKS
FARMINGTON     MOCLDY    51  46  83 NE7       30.27S
SANTA FE       FAIR      55  42  61 SE5       30.31R
TAOS           MOCLDY    54  41  62 N15       30.39S
ANGEL FIRE     MOCLDY    35  34  94 CALM      30.46R

$$
NMZ402-403-502-505>509-291200-
WESTCENTRAL MOUNTAINS/SOUTHWEST MOUNTAINS

CITY           SKY/WX    TMP DP  RH WIND       PRES   REMARKS
GALLUP         FAIR      41  38  89 CALM      30.32S
GRANTS         FAIR      45  43  93 NW7       30.35S
SILVER CITY    FAIR      53  50  92 N6        30.21S

$$
NMZ407-409-411-412-291200-
SOUTHERN DESERTS

CITY           SKY/WX    TMP DP  RH WIND       PRES   REMARKS
DEMING         FAIR      62  52  69 E8        30.15S
LAS CRUCES     FAIR      64  55  73 CALM      30.16F
HOLLOMAN AFB   FAIR      62  55  78 NE5       30.14R
ALAMOGORDO     FAIR      64  55  72 N9        30.15F
T OR C         FAIR      62  46  55 NW9       30.17F

$$
NMZ519>523-291200-
CENTRAL VALLEYS/CENTRAL HIGHLANDS

CITY           SKY/WX    TMP DP  RH WIND       PRES   REMARKS
ALBUQUERQUE    FAIR      62  43  49 N7        30.25R
DOUBLE EAGLE   FAIR      55  43  63 NW3       30.28S
MORIARTY ARPT  FAIR      45  41  88 NE5       30.32R
CLINES CORNERS FAIR      52  50  93 S10       30.34F
BELEN          FAIR      55  45  68 CALM      30.25R
SOCORRO        FAIR      59  46  62 N3        30.21S

$$
NMZ524>526-539-540-291200-
SOUTHCENTRAL MOUNTAINS

CITY           SKY/WX    TMP DP  RH WIND       PRES   REMARKS
RUIDOSO          N/A     52  50  93 S6        30.34S

$$
NMZ527>531-291200-
NORTHEAST HIGHLANDS/NORTHEAST PLAINS

CITY           SKY/WX    TMP DP  RH WIND       PRES   REMARKS
LAS VEGAS      FAIR      51  50  96 NW5       30.34S
RATON          CLOUDY    57  47  69 E5        30.33R
CLAYTON        LGT RAIN  60  56  86 NW13      30.27S

$$
NMZ532>537-291200-
EASTCENTRAL PLAINS

CITY           SKY/WX    TMP DP  RH WIND       PRES   REMARKS
TUCUMCARI      FAIR      64  60  87 CALM      30.20S
CANNON AFB     MOCLDY    64  63  98 NW6       30.21R
CLOVIS AIRPORT FAIR      63  57  82 CALM      30.21S

$$
NMZ028-029-538-291200-
SOUTHEAST PLAINS

CITY           SKY/WX    TMP DP  RH WIND       PRES   REMARKS
ROSWELL        FAIR      65  60  84 SW9       30.17S
ARTESIA        FAIR      64  64 100 SW3       30.17S
CARLSBAD       FAIR      65  61  87 CALM      30.14S
HOBBS          FAIR      63  63 100 N10       30.16F


$$




USA.gov is the U.S. government's official web portal to all federal, state and local government web resources and services.